Tracking 26922 objects as of 31-Jan-2023
HD Live streaming from Space Station
objects crossing your sky now

GAOFEN-5 02

Track GAOFEN-5 02 now!
10-day predictions


NORAD ID: 49122
Int'l Code: 2021-079A
Perigee: 705.6 km
Apogee: 709.8 km
Inclination: 98.2 °
Period: 98.8 minutes
Semi major axis: 7078 km
RCS: Unknown
Launch date: September 7, 2021
Source: People's Republic of China (PRC)
Launch site: Taiyaun Space Center, China (TSC)
Your satellite tracking list
Your tracking list is empty




NASA's NSSDC Master Catalog

Two Line Element Set (TLE):
1 49122U 21079A   23031.61549734  .00000520  00000-0  12397-3 0  9997
2 49122  98.2297 108.8801 0002976 127.8032 232.3430 14.57726924 74511
Source of the keplerian elements: AFSPC